Wind_Speed
10 9 9 8 8 8 7 7 6 6 6 6 6 5 5 4 4 4 4 4 5 5 5 5 5 5 5 5 5 5 5 6 5 5 4 4 4 4 5 7 10 11 12
10 10 9 9 9 8 8 7 6 6 5 5 4 4 3 3 2 2 2 2 3 3 3 4 4 4 4 4 4 4 4 5 5 5 4 4 4 5 7 9 10 12 13
11 10 9 9 9 8 8 7 7 6 5 4 4 3 2 2 1 0 1 2 2 2 3 3 3 3 3 3 3 3 3 3 4 4 3 3 4 5 6 9 11 12 13
12 10 9 9 9 8 8 8 7 6 5 4 4 3 3 2 2 1 2 2 3 3 3 2 2 2 2 2 2 2 2 2 3 3 3 3 3 4 6 9 10 12 12
12 11 10 9 9 8 8 8 7 6 6 5 5 4 4 3 3 3 3 3 4 4 3 3 3 2 2 1 1 1 1 1 1 2 2 2 3 3 6 7 9 11 12
11 11 9 9 9 9 8 8 7 6 6 5 5 5 4 4 5 5 5 5 5 5 5 4 4 3 2 2 2 2 1 1 0 1 1 1 2 2 5 7 8 10 11
12 11 10 10 9 9 9 8 8 7 6 6 6 6 6 6 6 6 6 6 6 6 6 6 5 5 4 3 4 3 3 3 2 2 2 2 2 3 5 7 8 9 10
14 12 11 10 10 10 9 9 8 7 7 7 7 7 7 7 7 7 7 7 7 8 7 7 7 6 5 5 5 5 4 4 4 3 3 3 3 4 5 7 7 8 9
14 13 12 11 11 10 10 9 8 8 8 8 8 8 8 8 8 9 8 8 8 8 8 8 8 8 7 6 6 6 6 5 5 5 5 5 5 5 6 7 7 8 10
15 14 14 13 12 11 10 9 9 8 8 8 8 9 9 9 9 9 9 9 9 9 9 9 8 8 8 7 7 7 7 7 7 7 7 7 7 7 7 8 8 9 10
17 16 15 14 13 12 11 10 10 9 9 9 9 9 10 10 10 10 10 10 9 9 9 8 8 7 8 8 8 7 8 8 8 9 8 8 8 8 9 9 9 10 11
19 18 17 16 14 13 12 11 11 10 10 10 10 10 10 10 10 10 10 9 8 8 8 7 7 6 7 7 7 7 8 9 10 10 10 10 9 9 10 11 11 11 12
22 20 19 17 15 14 13 12 11 10 10 9 9 9 9 10 10 10 9 9 8 8 7 7 7 6 6 7 7 8 8 9 11 11 11 11 11 11 11 12 12 12 12
23 22 20 18 17 16 15 13 11 10 10 10 9 10 10 10 9 9 8 8 8 7 7 7 6 7 7 7 8 8 9 9 11 11 12 12 13 13 13 13 13 14 13
25 24 22 20 19 17 15 13 11 10 10 9 9 9 9 9 8 7 7 7 7 7 7 7 7 7 7 7 8 9 9 10 10 11 12 12 13 14 14 15 15 15 15
26 25 24 22 20 18 15 12 11 9 9 8 8 8 8 7 6 6 6 6 6 6 6 6 6 6 6 7 7 8 9 10 11 11 12 12 13 13 14 14 15 15 15
27 26 24 23 21 18 15 13 11 9 8 7 7 7 6 5 5 5 5 5 5 5 5 6 6 6 6 6 6 7 8 9 10 11 12 13 13 13 13 13 14 15 16
28 27 24 23 21 19 16 14 11 9 8 6 6 5 4 4 4 3 3 3 4 4 5 5 5 4 5 5 5 6 7 8 9 11 12 13 13 13 13 14 14 15 15
27 26 24 23 20 17 16 14 11 9 7 6 5 4 3 3 2 2 2 2 2 2 3 3 3 3 4 4 4 5 5 7 8 9 10 12 13 14 14 14 15 15 16
24 24 23 22 19 16 14 12 10 8 7 6 4 3 2 2 1 1 1 1 1 2 2 2 2 3 3 4 4 4 5 6 7 9 10 11 12 13 14 15 15 16 17
20 21 22 21 19 16 13 11 9 8 7 6 5 4 3 2 1 1 0 1 1 2 2 2 2 3 3 3 3 3 4 5 6 8 9 10 11 12 13 14 15 16 17
19 19 19 18 17 15 13 10 9 9 8 6 5 4 3 2 1 1 1 1 1 2 2 2 3 3 3 3 3 3 4 5 6 7 8 9 11 12 13 14 15 16 16
16 17 17 16 16 14 12 10 10 9 8 6 5 4 3 3 2 1 1 1 1 2 2 3 3 3 3 3 3 4 5 5 6 7 8 9 10 11 12 13 14 16 16
15 15 15 15 15 14 12 11 10 9 8 7 6 5 4 3 2 2 1 1 1 1 2 3 3 4 4 4 4 5 6 7 8 8 9 10 11 12 13 14 15 15 16
12 13 14 14 13 12 12 10 10 9 8 7 6 5 4 4 3 3 2 2 1 1 2 3 4 4 5 5 6 6 7 8 9 10 10 11 12 13 14 15 16 17 17
12 13 13 13 12 12 11 10 10 9 8 7 6 6 5 5 4 4 4 4 3 3 4 4 5 6 7 7 8 9 9 10 10 11 12 13 13 14 16 17 18 18 19
Wind_Direction
194 192 190 192 196 202 204 199 190 176 162 149 138 131 120 109 96 78 64 60 53 49 46 42 41 45 48 48 49 52 52 53 55 56 65 75 89 107 122 141 139 139 138
199 196 192 196 202 207 210 211 205 194 179 165 154 145 135 122 105 76 46 37 35 35 35 33 34 35 40 42 43 47 50 52 55 57 61 75 97 117 129 134 137 140 141
199 198 195 201 206 209 212 214 212 206 197 188 181 176 172 167 158 10 344 346 351 357 5 14 19 23 31 37 40 44 47 53 58 58 59 78 99 116 133 139 142 143 143
198 197 199 205 208 209 212 214 212 211 208 206 206 205 207 217 232 258 285 300 312 323 329 338 353 5 12 26 31 34 40 49 60 66 66 79 95 115 135 143 144 148 149
202 202 202 209 214 214 213 216 217 220 216 216 221 224 226 235 245 258 276 288 297 305 310 312 317 328 331 329 332 350 12 31 58 79 81 84 100 122 140 144 149 154 155
206 206 209 215 216 213 214 219 222 225 225 227 233 239 244 250 257 264 276 282 288 292 297 300 300 298 293 280 275 272 275 290 194 131 123 127 137 146 158 156 155 158 161
213 213 217 219 216 213 213 218 223 227 233 238 244 253 261 266 268 272 277 282 284 286 290 290 288 284 277 267 264 262 257 253 235 210 196 189 195 186 173 165 167 167 168
217 216 218 220 218 215 218 222 227 232 240 248 254 263 272 276 275 277 282 286 287 286 287 285 280 278 275 268 262 260 253 244 236 232 225 218 221 209 188 180 180 181 183
218 216 218 220 221 222 225 228 233 240 248 256 264 272 278 280 280 282 285 287 287 285 288 289 279 270 274 269 261 254 249 244 236 234 231 227 224 215 201 195 193 192 190
218 219 221 222 224 225 228 233 240 247 255 262 270 276 280 280 280 283 286 287 285 285 286 288 283 271 269 268 261 252 246 241 236 236 234 233 230 222 210 204 205 204 199
219 221 222 227 227 228 231 237 244 251 260 266 272 275 277 278 280 284 286 284 285 286 286 290 283 274 271 271 264 255 250 244 239 236 235 234 232 228 222 214 213 213 209
220 222 226 228 229 231 235 239 245 254 262 268 272 274 275 277 281 282 282 285 286 288 288 290 283 273 276 273 267 258 254 248 239 235 236 235 234 233 231 226 223 220 217
220 222 226 230 231 234 237 241 246 252 259 266 273 273 275 276 276 278 280 281 281 283 285 287 286 281 278 272 268 261 254 250 242 238 238 237 238 238 235 233 232 228 224
221 223 226 230 233 235 237 240 245 251 257 265 271 271 273 274 273 274 277 279 278 278 280 281 285 279 276 272 267 265 260 255 251 242 242 242 242 242 240 238 234 232 230
219 222 227 230 233 234 236 239 245 250 256 265 269 271 272 272 271 272 274 279 278 277 277 279 281 278 275 272 266 263 263 259 256 249 248 247 248 248 246 245 238 235 233
219 221 226 228 230 233 236 238 244 248 253 259 264 267 267 267 266 269 273 276 278 277 276 276 280 280 276 270 264 262 264 262 262 256 254 253 252 252 249 248 245 242 238
220 221 225 226 228 230 231 234 238 242 247 253 256 259 260 261 264 269 273 273 276 277 279 282 284 280 278 276 269 261 261 261 263 262 260 258 255 254 253 253 255 250 245
220 223 225 226 226 225 225 226 230 233 238 239 245 251 253 256 264 267 273 275 275 278 282 286 287 283 281 282 278 270 264 263 263 264 261 259 257 258 257 257 260 260 257
219 221 223 226 223 218 218 220 224 224 224 224 229 227 229 243 247 260 274 275 282 288 295 299 297 290 286 286 284 278 272 268 267 267 266 262 260 260 260 259 260 262 262
215 217 218 219 215 212 212 216 218 214 209 209 206 198 199 197 206 252 284 316 335 337 338 337 330 317 302 294 287 281 275 271 269 268 266 264 263 263 262 261 261 263 262
213 212 212 209 207 205 204 206 205 198 194 192 188 183 181 176 165 138 74 25 9 11 8 1 355 345 331 319 306 294 285 277 274 271 270 268 267 265 262 262 263 264 262
205 204 201 197 196 197 199 198 195 186 182 183 183 184 186 183 170 138 83 47 36 29 19 11 7 1 352 340 326 311 301 294 288 282 278 275 272 269 267 266 266 264 263
194 192 193 192 191 189 190 192 190 185 182 182 182 183 187 184 177 157 130 88 64 44 34 25 21 15 3 349 333 320 309 300 294 291 286 281 279 276 273 270 268 266 265
187 189 188 184 184 184 186 189 190 187 185 186 184 185 188 184 174 168 172 166 132 37 10 7 1 356 353 348 338 327 318 311 304 296 290 286 283 280 278 274 272 269 267
178 179 179 178 181 183 184 189 190 189 190 187 186 187 191 193 198 207 210 216 239 290 322 331 337 338 336 332 328 324 320 315 309 304 298 292 287 284 281 278 275 273 271
175 178 180 180 182 183 187 190 193 194 191 191 194 197 205 213 222 230 233 245 261 276 290 303 309 312 314 311 311 312 312 311 308 305 301 297 292 288 284 281 278 276 274
Height
5908 5909 5909 5910 5910 5911 5911 5911 5912 5912 5912 5912 5912 5912 5912 5912 5912 5912 5912 5911 5911 5911 5910 5910 5909 5909 5908 5907 5907 5906 5905 5904 5903 5902 5901 5900 5899 5898 5898 5897 5898 5899 5900
5908 5908 5908 5909 5910 5911 5911 5911 5912 5912 5912 5911 5912 5912 5912 5912 5912 5912 5912 5912 5911 5911 5910 5910 5910 5909 5909 5908 5907 5906 5905 5905 5904 5903 5902 5901 5900 5899 5899 5899 5899 5900 5902
5906 5907 5908 5909 5909 5910 5911 5911 5911 5911 5911 5911 5911 5911 5911 5911 5912 5912 5912 5912 5911 5911 5910 5910 5909 5909 5908 5908 5907 5906 5906 5905 5904 5904 5903 5902 5901 5900 5900 5900 5901 5902 5903
5904 5905 5906 5907 5908 5909 5910 5911 5911 5911 5911 5911 5911 5911 5911 5911 5911 5911 5911 5911 5911 5910 5910 5909 5909 5908 5908 5908 5907 5907 5906 5905 5905 5904 5903 5903 5902 5902 5902 5901 5902 5903 5904
5903 5904 5905 5906 5907 5908 5909 5910 5910 5910 5910 5911 5911 5911 5911 5911 5911 5911 5910 5910 5910 5910 5909 5909 5908 5908 5907 5907 5907 5906 5906 5906 5905 5905 5904 5903 5903 5903 5903 5903 5903 5904 5906
5901 5902 5903 5904 5906 5906 5907 5908 5909 5909 5910 5910 5910 5910 5910 5910 5910 5910 5909 5909 5909 5909 5908 5908 5907 5907 5907 5906 5906 5906 5906 5905 5905 5905 5904 5904 5904 5903 5904 5904 5904 5905 5906
5899 5900 5902 5903 5904 5905 5906 5907 5908 5908 5908 5909 5909 5909 5908 5908 5908 5908 5908 5908 5908 5907 5907 5906 5906 5906 5906 5905 5905 5905 5905 5905 5905 5904 5904 5904 5904 5904 5904 5904 5905 5906 5907
5897 5899 5900 5901 5903 5904 5905 5905 5906 5906 5907 5907 5907 5907 5907 5907 5906 5906 5906 5906 5906 5905 5905 5905 5904 5904 5904 5904 5904 5904 5904 5904 5904 5904 5904 5904 5904 5904 5904 5905 5906 5906 5907
5895 5897 5898 5900 5901 5902 5903 5904 5904 5905 5905 5905 5905 5905 5905 5904 5904 5903 5903 5903 5903 5903 5903 5902 5902 5902 5902 5902 5902 5903 5903 5903 5903 5903 5903 5903 5903 5904 5904 5905 5905 5906 5907
5893 5895 5896 5898 5899 5900 5901 5902 5902 5903 5903 5903 5903 5903 5902 5902 5901 5901 5900 5900 5900 5900 5900 5900 5899 5899 5899 5900 5900 5900 5901 5901 5901 5902 5902 5902 5903 5903 5904 5904 5905 5906 5907
5891 5893 5894 5896 5897 5898 5899 5899 5900 5900 5901 5900 5900 5900 5900 5899 5898 5898 5898 5897 5897 5897 5897 5897 5897 5897 5897 5897 5897 5898 5898 5899 5899 5900 5900 5901 5901 5902 5902 5903 5904 5905 5906
5888 5890 5892 5893 5895 5896 5897 5897 5898 5898 5898 5898 5898 5897 5897 5897 5896 5895 5895 5895 5895 5894 5894 5894 5894 5894 5894 5894 5895 5895 5896 5896 5897 5898 5898 5899 5900 5900 5901 5902 5902 5903 5904
5885 5887 5889 5891 5893 5894 5894 5895 5895 5896 5896 5896 5895 5895 5895 5894 5894 5893 5893 5892 5892 5892 5892 5892 5892 5892 5892 5892 5893 5893 5893 5894 5895 5895 5896 5897 5898 5898 5899 5900 5900 5901 5902
5882 5884 5886 5888 5890 5891 5892 5893 5893 5893 5893 5894 5893 5893 5892 5892 5891 5891 5890 5890 5890 5890 5890 5890 5890 5890 5890 5890 5890 5891 5891 5892 5892 5893 5894 5895 5895 5896 5897 5897 5898 5899 5900
5878 5881 5883 5885 5887 5888 5889 5890 5890 5891 5891 5891 5891 5890 5890 5890 5889 5888 5888 5888 5888 5888 5888 5888 5888 5888 5888 5888 5888 5889 5889 5889 5889 5890 5891 5892 5893 5893 5894 5895 5896 5897 5898
5874 5877 5879 5882 5883 5885 5886 5887 5888 5888 5889 5889 5889 5888 5888 5888 5887 5887 5886 5886 5886 5886 5886 5886 5886 5886 5886 5886 5886 5887 5887 5887 5887 5888 5888 5889 5890 5891 5891 5892 5893 5893 5895
5870 5873 5875 5877 5880 5882 5883 5885 5886 5886 5887 5887 5887 5886 5886 5886 5885 5885 5885 5885 5885 5885 5885 5885 5884 5884 5884 5884 5884 5885 5885 5885 5885 5885 5886 5886 5887 5888 5888 5889 5890 5890 5891
5865 5868 5871 5873 5876 5878 5880 5882 5883 5884 5884 5884 5885 5884 5884 5884 5884 5884 5883 5883 5883 5883 5883 5883 5883 5883 5883 5883 5883 5882 5883 5883 5883 5883 5883 5884 5884 5885 5886 5886 5887 5887 5888
5861 5864 5867 5870 5873 5875 5878 5879 5881 5882 5882 5883 5883 5883 5883 5883 5883 5883 5882 5882 5882 5882 5882 5882 5881 5881 5881 5881 5881 5881 5881 5881 5881 5881 5881 5881 5882 5882 5883 5883 5884 5884 5885
5857 5861 5864 5867 5870 5873 5875 5877 5879 5880 5881 5881 5882 5882 5882 5882 5882 5882 5882 5881 5881 5881 5881 5881 5880 5880 5880 5880 5880 5880 5879 5879 5879 5879 5879 5879 5879 5880 5880 5880 5881 5881 5882
5855 5857 5861 5865 5868 5871 5873 5875 5877 5878 5879 5880 5881 5881 5881 5881 5881 5881 5881 5881 5881 5880 5880 5880 5880 5879 5879 5879 5879 5878 5878 5878 5877 5877 5877 5877 5877 5877 5877 5877 5878 5878 5878
5852 5855 5859 5863 5866 5869 5872 5874 5876 5877 5878 5880 5880 5880 5880 5881 5881 5881 5881 5881 5881 5880 5880 5880 5879 5879 5878 5878 5878 5877 5877 5877 5876 5875 5875 5875 5875 5874 5874 5874 5875 5875 5875
5851 5853 5857 5861 5864 5868 5871 5873 5875 5877 5878 5879 5879 5879 5880 5880 5880 5880 5880 5880 5880 5880 5880 5879 5879 5878 5878 5877 5877 5876 5876 5876 5875 5874 5873 5873 5872 5872 5872 5872 5872 5872 5872
5851 5854 5857 5860 5864 5867 5870 5872 5874 5876 5877 5878 5878 5879 5879 5879 5880 5880 5880 5880 5880 5880 5879 5879 5878 5878 5877 5877 5876 5875 5875 5874 5873 5872 5872 5871 5870 5869 5869 5869 5868 5868 5868
5851 5854 5857 5860 5864 5867 5869 5872 5874 5875 5876 5877 5877 5878 5878 5879 5879 5879 5879 5880 5879 5879 5879 5878 5878 5877 5876 5876 5875 5874 5873 5872 5871 5870 5869 5869 5868 5867 5866 5865 5865 5865 5865
5851 5854 5857 5861 5863 5866 5869 5871 5872 5874 5875 5875 5876 5877 5877 5878 5878 5878 5879 5879 5878 5878 5878 5877 5877 5876 5875 5874 5873 5872 5871 5870 5869 5868 5867 5866 5865 5864 5863 5862 5861 5861 5860